Satellite-Ground Cal/Val Site Overpasses Predictions

Prediction of Satellite NPP Overpassing Cal/Val Site: Antarctic Dome C

Ground Cal/Val Site Location: Latitude: -75.10, Longitude: 123.35; Satellite-Ground Site NADIR distance within 100 km.

Table of predicted overpasses for the next 14.0 days since TLE Epoch: 4/2/2022
Interval Starting Time Ending Time Minimum Distance Time Minimum Distance (km)
1 04/02/2022 14:36:24 04/02/2022 14:36:38 04/02/2022 14:36:31 86.06
2 04/03/2022 07:37:56 04/03/2022 07:38:24 04/03/2022 07:38:10 35.83
3 04/04/2022 07:19:10 04/04/2022 07:19:29 04/04/2022 07:19:20 74.26
4 04/06/2022 15:01:24 04/06/2022 15:01:48 04/06/2022 15:01:36 57.90
5 04/07/2022 14:42:34 04/07/2022 14:42:59 04/07/2022 14:42:46 51.30
6 04/08/2022 07:44:14 04/08/2022 07:44:34 04/08/2022 07:44:24 70.98
7 04/09/2022 07:25:21 04/09/2022 07:25:49 04/09/2022 07:25:35 36.95
8 04/11/2022 15:07:47 04/11/2022 15:07:55 04/11/2022 15:07:51 95.49
9 04/12/2022 14:48:46 04/12/2022 14:49:15 04/12/2022 14:49:00 15.83
